Tracking 29892 objects as of 21-Nov-2024
HD Live streaming from Space Station
objects crossing your sky now

BREEZE-M R/B

Track BREEZE-M R/B now!


NORAD ID: 40506
Int'l Code: 2015-012B
Perigee: 4,231.3 km
Apogee: 34,364.8 km
Inclination: 20.5 °
Period: 682.1 minutes
Semi major axis: 25669 km
RCS: Unknown
Launch date: March 18, 2015
Source: Commonwealth of Independent States (former USSR) (CIS)
Launch site: TYURATAM MISSILE AND SPACE COMPLEX (TTMTR)

Note: This is a ROCKET BODY
Your satellite tracking list
Your tracking list is empty




NASA's NSSDC Master Catalog

Two Line Element Set (TLE):
1 40506U 15012B   24325.48776459 -.00000103  00000-0  00000-0 0  9995
2 40506  20.4883 281.8088 5869611 356.3695   0.6399  2.11100125 74630
Source of the keplerian elements: AFSPC